owner,sensor,date,latitude,longitude,air_temperature,qcFlag 
ADCP,ioos:station:wmo:42395:1,2015-10-07T14:00:00Z,26.4040,-90.7920,27.6,11111222 
ADCP,ioos:station:wmo:42395:1,2015-10-07T16:00:00Z,26.4040,-90.7920,27.5,11111222 
ADCP,ioos:station:wmo:42395:1,2015-10-07T16:20:00Z,26.4040,-90.7920,27.5,11111222 
ADCP,ioos:station:wmo:42395:1,2015-10-07T18:20:00Z,26.4040,-90.7920,27.3,11111222 
ADCP,ioos:station:wmo:42395:1,2015-10-07T20:00:00Z,26.4040,-90.7920,27.6,11111222 
ADCP,ioos:station:wmo:42395:1,2015-10-07T20:20:00Z,26.4040,-90.7920,27.6,11111222 
ADCP,ioos:station:wmo:42395:1,2015-10-07T22:00:00Z,26.4040,-90.7920,27.6,11111222 
ADCP,ioos:station:wmo:42395:1,2015-10-07T22:20:00Z,26.4040,-90.7920,27.5,11111222 
ADCP,ioos:station:wmo:42395:1,2015-10-08T00:20:00Z,26.4040,-90.7920,27.3,11111222 
ADCP,ioos:station:wmo:42395:1,2015-10-08T02:20:00Z,26.4040,-90.7920,27.4,11111222 
ADCP,ioos:station:wmo:42395:1,2015-10-08T14:40:00Z,26.4040,-90.7920,27.6,11111222 
ADCP,ioos:station:wmo:42395:1,2015-10-13T22:00:00Z,26.4040,-90.7920,28.0,11111222 
ADCP,ioos:station:wmo:42395:1,2015-10-13T22:20:00Z,26.4040,-90.7920,28.0,11111222 
ADCP,ioos:station:wmo:42395:1,2015-10-13T23:00:00Z,26.4040,-90.7920,27.8,11111222 
ADCP,ioos:station:wmo:42395:1,2015-10-13T23:20:00Z,26.4040,-90.7920,27.7,11111222 
ADCP,ioos:station:wmo:42395:1,2015-10-13T23:40:00Z,26.4040,-90.7920,27.6,11111222 
ADCP,ioos:station:wmo:42395:1,2015-10-14T00:00:00Z,26.4040,-90.7920,27.6,11111222 
ADCP,ioos:station:wmo:42395:1,2015-10-14T00:20:00Z,26.4040,-90.7920,27.6,11111222 
ADCP,ioos:station:wmo:42395:1,2015-10-14T01:00:00Z,26.4040,-90.7920,27.5,11111222 
ADCP,ioos:station:wmo:42395:1,2015-10-14T01:20:00Z,26.4040,-90.7920,27.3,11111222 
ADCP,ioos:station:wmo:42395:1,2015-10-14T01:40:00Z,26.4040,-90.7920,27.3,11111222 
ADCP,ioos:station:wmo:42395:1,2015-10-14T02:00:00Z,26.4040,-90.7920,27.2,11111222 
ADCP,ioos:station:wmo:42395:1,2015-10-14T02:20:00Z,26.4040,-90.7920,27.1,11111222 
ADCP,ioos:station:wmo:42395:1,2015-10-14T03:00:00Z,26.4040,-90.7920,27.1,11111222 
ADCP,ioos:station:wmo:42395:1,2015-10-14T03:20:00Z,26.4040,-90.7920,27.1,11111222 
ADCP,ioos:station:wmo:42395:1,2015-10-14T03:40:00Z,26.4040,-90.7920,26.9,11111222 
ADCP,ioos:station:wmo:42395:1,2015-10-14T04:00:00Z,26.4040,-90.7920,26.8,11111222 
ADCP,ioos:station:wmo:42395:1,2015-10-14T04:20:00Z,26.4040,-90.7920,26.8,11111222 
ADCP,ioos:station:wmo:42395:1,2015-10-14T04:40:00Z,26.4040,-90.7920,26.8,11111222 
ADCP,ioos:station:wmo:42395:1,2015-10-14T05:20:00Z,26.4040,-90.7920,26.8,11111222 
ADCP,ioos:station:wmo:42395:1,2015-10-14T05:40:00Z,26.4040,-90.7920,26.8,11111222 
ADCP,ioos:station:wmo:42395:1,2015-10-14T06:00:00Z,26.4040,-90.7920,26.8,11111222 
ADCP,ioos:station:wmo:42395:1,2015-10-14T06:40:00Z,26.4040,-90.7920,26.6,11111222 
ADCP,ioos:station:wmo:42395:1,2015-10-14T07:00:00Z,26.4040,-90.7920,26.6,11111222 
ADCP,ioos:station:wmo:42395:1,2015-10-14T07:20:00Z,26.4040,-90.7920,26.8,11111222 
ADCP,ioos:station:wmo:42395:1,2015-10-14T07:40:00Z,26.4040,-90.7920,26.8,11111222 
ADCP,ioos:station:wmo:42395:1,2015-10-14T08:00:00Z,26.4040,-90.7920,26.8,11111222 
ADCP,ioos:station:wmo:42395:1,2015-10-14T08:40:00Z,26.4040,-90.7920,26.6,11111222 
ADCP,ioos:station:wmo:42395:1,2015-10-14T09:00:00Z,26.4040,-90.7920,26.6,11111222 
ADCP,ioos:station:wmo:42395:1,2015-10-14T09:20:00Z,26.4040,-90.7920,26.7,11111222 
ADCP,ioos:station:wmo:42395:1,2015-10-14T09:40:00Z,26.4040,-90.7920,26.7,11111222 
ADCP,ioos:station:wmo:42395:1,2015-10-14T10:00:00Z,26.4040,-90.7920,26.6,11111222 
ADCP,ioos:station:wmo:42395:1,2015-10-14T10:40:00Z,26.4040,-90.7920,26.8,11111222 
ADCP,ioos:station:wmo:42395:1,2015-10-14T11:00:00Z,26.4040,-90.7920,26.8,11111222 
ADCP,ioos:station:wmo:42395:1,2015-10-14T11:20:00Z,26.4040,-90.7920,26.9,11111222 
ADCP,ioos:station:wmo:42395:1,2015-10-14T11:40:00Z,26.4040,-90.7920,26.9,11111222 
ADCP,ioos:station:wmo:42395:1,2015-10-14T12:00:00Z,26.4040,-90.7920,26.9,11111222 
ADCP,ioos:station:wmo:42395:1,2015-10-14T12:20:00Z,26.4040,-90.7920,27.1,11111222 
ADCP,ioos:station:wmo:42395:1,2015-10-14T13:00:00Z,26.4040,-90.7920,27.8,11111222 
ADCP,ioos:station:wmo:42395:1,2015-10-14T13:20:00Z,26.4040,-90.7920,28.0,11111222 
ADCP,ioos:station:wmo:42395:1,2015-10-14T13:40:00Z,26.4040,-90.7920,28.3,11111222 
ADCP,ioos:station:wmo:42395:1,2015-10-14T14:00:00Z,26.4040,-90.7920,28.5,11111222 
ADCP,ioos:station:wmo:42395:1,2015-10-14T14:20:00Z,26.4040,-90.7920,28.3,11111222 
ADCP,ioos:station:wmo:42395:1,2015-10-14T14:40:00Z,26.4040,-90.7920,28.1,11111222 
ADCP,ioos:station:wmo:42395:1,2015-10-14T15:00:00Z,26.4040,-90.7920,28.1,11111222 
ADCP,ioos:station:wmo:42395:1,2015-10-14T15:20:00Z,26.4040,-90.7920,28.1,11111222 
ADCP,ioos:station:wmo:42395:1,2015-10-14T15:40:00Z,26.4040,-90.7920,28.3,11111222 
ADCP,ioos:station:wmo:42395:1,2015-10-14T16:00:00Z,26.4040,-90.7920,28.4,11111222 
ADCP,ioos:station:wmo:42395:1,2015-10-14T16:20:00Z,26.4040,-90.7920,28.5,11111222 
ADCP,ioos:station:wmo:42395:1,2015-10-14T16:40:00Z,26.4040,-90.7920,28.0,11111222 
ADCP,ioos:station:wmo:42395:1,2015-10-14T17:00:00Z,26.4040,-90.7920,27.8,11111222 
ADCP,ioos:station:wmo:42395:1,2015-10-14T17:20:00Z,26.4040,-90.7920,27.9,11111222 
ADCP,ioos:station:wmo:42395:1,2015-10-14T18:00:00Z,26.4040,-90.7920,27.4,11111222 
ADCP,ioos:station:wmo:42395:1,2015-10-14T18:20:00Z,26.4040,-90.7920,27.4,11111222 
ADCP,ioos:station:wmo:42395:1,2015-10-14T19:00:00Z,26.4040,-90.7920,27.7,11111222 
ADCP,ioos:station:wmo:42395:1,2015-10-14T19:20:00Z,26.4040,-90.7920,28.0,11111222 
ADCP,ioos:station:wmo:42395:1,2015-10-14T19:40:00Z,26.4040,-90.7920,28.6,11111222 
ADCP,ioos:station:wmo:42395:1,2015-10-14T20:00:00Z,26.4040,-90.7920,28.4,11111222 
ADCP,ioos:station:wmo:42395:1,2015-10-14T20:20:00Z,26.4040,-90.7920,28.1,11111222 
ADCP,ioos:station:wmo:42395:1,2015-10-14T20:40:00Z,26.4040,-90.7920,28.3,11111222 
ADCP,ioos:station:wmo:42395:1,2015-10-14T21:00:00Z,26.4040,-90.7920,28.3,11111222 
ADCP,ioos:station:wmo:42395:1,2015-10-14T21:20:00Z,26.4040,-90.7920,28.2,11111222 
ADCP,ioos:station:wmo:42395:1,2015-10-14T21:40:00Z,26.4040,-90.7920,28.2,11111222 
ADCP,ioos:station:wmo:42395:1,2015-10-14T22:00:00Z,26.4040,-90.7920,28.1,11111222 
ADCP,ioos:station:wmo:42395:1,2015-10-14T22:20:00Z,26.4040,-90.7920,28.0,11111222 
ADCP,ioos:station:wmo:42395:1,2015-10-14T23:00:00Z,26.4040,-90.7920,27.8,11111222 
ADCP,ioos:station:wmo:42395:1,2015-10-14T23:20:00Z,26.4040,-90.7920,27.7,11111222 
ADCP,ioos:station:wmo:42395:1,2015-10-14T23:40:00Z,26.4040,-90.7920,27.6,11111222 
ADCP,ioos:station:wmo:42395:1,2015-10-15T00:00:00Z,26.4040,-90.7920,27.5,11111222 
ADCP,ioos:station:wmo:42395:1,2015-10-15T00:20:00Z,26.4040,-90.7920,27.5,11111222 
ADCP,ioos:station:wmo:42395:1,2015-10-15T01:00:00Z,26.4040,-90.7920,27.4,11111222 
ADCP,ioos:station:wmo:42395:1,2015-10-15T01:20:00Z,26.4040,-90.7920,27.4,11111222 
ADCP,ioos:station:wmo:42395:1,2015-10-15T01:40:00Z,26.4040,-90.7920,27.4,11111222 
ADCP,ioos:station:wmo:42395:1,2015-10-15T02:00:00Z,26.4040,-90.7920,27.5,11111222 
ADCP,ioos:station:wmo:42395:1,2015-10-15T02:20:00Z,26.4040,-90.7920,27.5,11111222 
ADCP,ioos:station:wmo:42395:1,2015-10-15T02:40:00Z,26.4040,-90.7920,27.6,11111222 
ADCP,ioos:station:wmo:42395:1,2015-10-15T03:00:00Z,26.4040,-90.7920,27.6,11111222 
ADCP,ioos:station:wmo:42395:1,2015-10-15T03:40:00Z,26.4040,-90.7920,27.6,11111222 
ADCP,ioos:station:wmo:42395:1,2015-10-15T04:00:00Z,26.4040,-90.7920,27.4,11111222 
ADCP,ioos:station:wmo:42395:1,2015-10-15T04:20:00Z,26.4040,-90.7920,27.3,11111222 
ADCP,ioos:station:wmo:42395:1,2015-10-15T04:40:00Z,26.4040,-90.7920,27.5,11111222 
ADCP,ioos:station:wmo:42395:1,2015-10-15T05:00:00Z,26.4040,-90.7920,27.5,11111222 
ADCP,ioos:station:wmo:42395:1,2015-10-15T05:20:00Z,26.4040,-90.7920,27.5,11111222 
ADCP,ioos:station:wmo:42395:1,2015-10-15T06:00:00Z,26.4040,-90.7920,27.4,11111222 
ADCP,ioos:station:wmo:42395:1,2015-10-15T06:20:00Z,26.4040,-90.7920,27.4,11111222 
ADCP,ioos:station:wmo:42395:1,2015-10-15T06:40:00Z,26.4040,-90.7920,27.3,11111222 
ADCP,ioos:station:wmo:42395:1,2015-10-15T07:00:00Z,26.4040,-90.7920,27.4,11111222 
ADCP,ioos:station:wmo:42395:1,2015-10-15T07:20:00Z,26.4040,-90.7920,27.3,11111222 
ADCP,ioos:station:wmo:42395:1,2015-10-15T08:00:00Z,26.4040,-90.7920,27.1,11111222 
ADCP,ioos:station:wmo:42395:1,2015-10-15T08:20:00Z,26.4040,-90.7920,27.1,11111222 
ADCP,ioos:station:wmo:42395:1,2015-10-15T08:40:00Z,26.4040,-90.7920,27.1,11111222 
ADCP,ioos:station:wmo:42395:1,2015-10-15T09:00:00Z,26.4040,-90.7920,27.1,11111222 
ADCP,ioos:station:wmo:42395:1,2015-10-15T09:20:00Z,26.4040,-90.7920,27.1,11111222 
ADCP,ioos:station:wmo:42395:1,2015-10-15T10:00:00Z,26.4040,-90.7920,26.9,11111222 
ADCP,ioos:station:wmo:42395:1,2015-10-15T10:20:00Z,26.4040,-90.7920,27.0,11111222 
ADCP,ioos:station:wmo:42395:1,2015-10-15T10:40:00Z,26.4040,-90.7920,26.9,11111222 
ADCP,ioos:station:wmo:42395:1,2015-10-15T11:00:00Z,26.4040,-90.7920,26.9,11111222 
ADCP,ioos:station:wmo:42395:1,2015-10-15T11:20:00Z,26.4040,-90.7920,26.9,11111222 
ADCP,ioos:station:wmo:42395:1,2015-10-15T12:00:00Z,26.4040,-90.7920,26.9,11111222 
ADCP,ioos:station:wmo:42395:1,2015-10-15T12:20:00Z,26.4040,-90.7920,26.8,11111222 
ADCP,ioos:station:wmo:42395:1,2015-10-15T12:40:00Z,26.4040,-90.7920,26.9,11111222 
ADCP,ioos:station:wmo:42395:1,2015-10-15T13:00:00Z,26.4040,-90.7920,27.0,11111222 
ADCP,ioos:station:wmo:42395:1,2015-10-15T13:20:00Z,26.4040,-90.7920,27.0,11111222 
ADCP,ioos:station:wmo:42395:1,2015-10-15T14:00:00Z,26.4040,-90.7920,27.0,11111222 
ADCP,ioos:station:wmo:42395:1,2015-10-15T14:20:00Z,26.4040,-90.7920,27.0,11111222 
ADCP,ioos:station:wmo:42395:1,2015-10-15T14:40:00Z,26.4040,-90.7920,27.0,11111222 
ADCP,ioos:station:wmo:42395:1,2015-10-15T15:00:00Z,26.4040,-90.7920,27.0,11111222 
ADCP,ioos:station:wmo:42395:1,2015-10-15T15:20:00Z,26.4040,-90.7920,27.0,11111222 
ADCP,ioos:station:wmo:42395:1,2015-10-15T16:00:00Z,26.4040,-90.7920,27.0,11111222 
ADCP,ioos:station:wmo:42395:1,2015-10-15T16:20:00Z,26.4040,-90.7920,27.1,11111222 
ADCP,ioos:station:wmo:42395:1,2015-10-15T17:00:00Z,26.4040,-90.7920,27.1,11111222 
ADCP,ioos:station:wmo:42395:1,2015-10-15T17:20:00Z,26.4040,-90.7920,27.0,11111222 
ADCP,ioos:station:wmo:42395:1,2015-10-15T17:40:00Z,26.4040,-90.7920,27.0,11111222 
ADCP,ioos:station:wmo:42395:1,2015-10-15T18:20:00Z,26.4040,-90.7920,27.1,11111222 
ADCP,ioos:station:wmo:42395:1,2015-10-15T18:40:00Z,26.4040,-90.7920,27.0,11111222 
ADCP,ioos:station:wmo:42395:1,2015-10-15T19:00:00Z,26.4040,-90.7920,27.1,11111222 
ADCP,ioos:station:wmo:42395:1,2015-10-15T19:20:00Z,26.4040,-90.7920,27.2,11111222 
ADCP,ioos:station:wmo:42395:1,2015-10-15T20:00:00Z,26.4040,-90.7920,27.2,11111222 
ADCP,ioos:station:wmo:42395:1,2015-10-15T20:20:00Z,26.4040,-90.7920,27.3,11111222 
ADCP,ioos:station:wmo:42395:1,2015-10-15T20:40:00Z,26.4040,-90.7920,27.3,11111222 
ADCP,ioos:station:wmo:42395:1,2015-10-15T21:00:00Z,26.4040,-90.7920,27.5,11111222 
ADCP,ioos:station:wmo:42395:1,2015-10-15T21:20:00Z,26.4040,-90.7920,27.5,11111222 
ADCP,ioos:station:wmo:42395:1,2015-10-15T22:00:00Z,26.4040,-90.7920,27.4,11111222 
ADCP,ioos:station:wmo:42395:1,2015-10-15T22:20:00Z,26.4040,-90.7920,27.4,11111222 
ADCP,ioos:station:wmo:42395:1,2015-10-15T22:40:00Z,26.4040,-90.7920,27.4,11111222 
ADCP,ioos:station:wmo:42395:1,2015-10-15T23:00:00Z,26.4040,-90.7920,27.3,11111222 
ADCP,ioos:station:wmo:42395:1,2015-10-15T23:20:00Z,26.4040,-90.7920,27.3,11111222 
ADCP,ioos:station:wmo:42395:1,2015-10-15T23:40:00Z,26.4040,-90.7920,27.3,11111222 
ADCP,ioos:station:wmo:42395:1,2015-10-16T00:20:00Z,26.4040,-90.7920,27.3,11111222 
ADCP,ioos:station:wmo:42395:1,2015-10-16T00:40:00Z,26.4040,-90.7920,27.2,11111222 
ADCP,ioos:station:wmo:42395:1,2015-10-16T01:00:00Z,26.4040,-90.7920,27.1,11111222 
ADCP,ioos:station:wmo:42395:1,2015-10-16T01:20:00Z,26.4040,-90.7920,27.2,11111222 
ADCP,ioos:station:wmo:42395:1,2015-10-16T01:40:00Z,26.4040,-90.7920,27.2,11111222 
ADCP,ioos:station:wmo:42395:1,2015-10-16T02:20:00Z,26.4040,-90.7920,27.3,11111222 
ADCP,ioos:station:wmo:42395:1,2015-10-16T02:40:00Z,26.4040,-90.7920,27.3,11111222 
ADCP,ioos:station:wmo:42395:1,2015-10-16T03:00:00Z,26.4040,-90.7920,27.3,11111222 
ADCP,ioos:station:wmo:42395:1,2015-10-16T03:20:00Z,26.4040,-90.7920,27.2,11111222 
ADCP,ioos:station:wmo:42395:1,2015-10-16T03:40:00Z,26.4040,-90.7920,27.2,11111222 
ADCP,ioos:station:wmo:42395:1,2015-10-16T04:20:00Z,26.4040,-90.7920,27.3,11111222 
ADCP,ioos:station:wmo:42395:1,2015-10-16T04:40:00Z,26.4040,-90.7920,27.3,11111222 
ADCP,ioos:station:wmo:42395:1,2015-10-16T05:00:00Z,26.4040,-90.7920,27.3,11111222 
ADCP,ioos:station:wmo:42395:1,2015-10-16T05:20:00Z,26.4040,-90.7920,27.4,11111222 
ADCP,ioos:station:wmo:42395:1,2015-10-16T06:00:00Z,26.4040,-90.7920,27.3,11111222 
ADCP,ioos:station:wmo:42395:1,2015-10-16T06:20:00Z,26.4040,-90.7920,27.3,11111222 
ADCP,ioos:station:wmo:42395:1,2015-10-16T06:40:00Z,26.4040,-90.7920,27.3,11111222 
ADCP,ioos:station:wmo:42395:1,2015-10-16T07:00:00Z,26.4040,-90.7920,27.3,11111222 
ADCP,ioos:station:wmo:42395:1,2015-10-16T07:20:00Z,26.4040,-90.7920,27.2,11111222 
ADCP,ioos:station:wmo:42395:1,2015-10-16T08:00:00Z,26.4040,-90.7920,27.1,11111222 
ADCP,ioos:station:wmo:42395:1,2015-10-16T08:20:00Z,26.4040,-90.7920,27.1,11111222 
ADCP,ioos:station:wmo:42395:1,2015-10-16T08:40:00Z,26.4040,-90.7920,27.1,11111222 
ADCP,ioos:station:wmo:42395:1,2015-10-16T09:00:00Z,26.4040,-90.7920,27.1,11111222 
ADCP,ioos:station:wmo:42395:1,2015-10-16T09:20:00Z,26.4040,-90.7920,27.1,11111222 
ADCP,ioos:station:wmo:42395:1,2015-10-16T10:00:00Z,26.4040,-90.7920,27.1,11111222 
ADCP,ioos:station:wmo:42395:1,2015-10-16T10:20:00Z,26.4040,-90.7920,27.1,11111222 
ADCP,ioos:station:wmo:42395:1,2015-10-16T10:40:00Z,26.4040,-90.7920,27.1,11111222 
ADCP,ioos:station:wmo:42395:1,2015-10-16T11:00:00Z,26.4040,-90.7920,27.0,11111222 
ADCP,ioos:station:wmo:42395:1,2015-10-16T11:20:00Z,26.4040,-90.7920,27.0,11111222 
ADCP,ioos:station:wmo:42395:1,2015-10-16T12:00:00Z,26.4040,-90.7920,27.0,11111222 
ADCP,ioos:station:wmo:42395:1,2015-10-16T12:20:00Z,26.4040,-90.7920,27.0,11111222 
ADCP,ioos:station:wmo:42395:1,2015-10-16T12:40:00Z,26.4040,-90.7920,27.1,11111222 
ADCP,ioos:station:wmo:42395:1,2015-10-16T13:00:00Z,26.4040,-90.7920,27.1,11111222 
ADCP,ioos:station:wmo:42395:1,2015-10-16T13:20:00Z,26.4040,-90.7920,27.3,11111222 
ADCP,ioos:station:wmo:42395:1,2015-10-16T14:00:00Z,26.4040,-90.7920,27.3,11111222 
ADCP,ioos:station:wmo:42395:1,2015-10-16T14:20:00Z,26.4040,-90.7920,27.3,11111222 
ADCP,ioos:station:wmo:42395:1,2015-10-16T14:40:00Z,26.4040,-90.7920,27.3,11111222 
ADCP,ioos:station:wmo:42395:1,2015-10-16T15:00:00Z,26.4040,-90.7920,27.3,11111222 
ADCP,ioos:station:wmo:42395:1,2015-10-16T15:20:00Z,26.4040,-90.7920,27.3,11111222 
ADCP,ioos:station:wmo:42395:1,2015-10-16T16:00:00Z,26.4040,-90.7920,27.3,11111222 
ADCP,ioos:station:wmo:42395:1,2015-10-16T16:20:00Z,26.4040,-90.7920,27.3,11111222 
ADCP,ioos:station:wmo:42395:1,2015-10-16T16:40:00Z,26.4040,-90.7920,27.3,11111222 
ADCP,ioos:station:wmo:42395:1,2015-10-16T17:00:00Z,26.4040,-90.7920,27.3,11111222 
ADCP,ioos:station:wmo:42395:1,2015-10-16T17:20:00Z,26.4040,-90.7920,27.2,11111222 
ADCP,ioos:station:wmo:42395:1,2015-10-16T18:00:00Z,26.4040,-90.7920,27.3,11111222 
ADCP,ioos:station:wmo:42395:1,2015-10-16T18:20:00Z,26.4040,-90.7920,27.3,11111222 
ADCP,ioos:station:wmo:42395:1,2015-10-16T18:40:00Z,26.4040,-90.7920,27.3,11111222 
ADCP,ioos:station:wmo:42395:1,2015-10-16T19:00:00Z,26.4040,-90.7920,27.3,11111222 
ADCP,ioos:station:wmo:42395:1,2015-10-16T19:20:00Z,26.4040,-90.7920,27.3,11111222 
ADCP,ioos:station:wmo:42395:1,2015-10-16T20:00:00Z,26.4040,-90.7920,27.5,11111222 
ADCP,ioos:station:wmo:42395:1,2015-10-16T20:20:00Z,26.4040,-90.7920,27.5,11111222 
ADCP,ioos:station:wmo:42395:1,2015-10-16T20:40:00Z,26.4040,-90.7920,27.6,11111222 
ADCP,ioos:station:wmo:42395:1,2015-10-16T21:00:00Z,26.4040,-90.7920,27.6,11111222 
ADCP,ioos:station:wmo:42395:1,2015-10-16T21:20:00Z,26.4040,-90.7920,27.6,11111222 
ADCP,ioos:station:wmo:42395:1,2015-10-16T22:00:00Z,26.4040,-90.7920,27.8,11111222 
ADCP,ioos:station:wmo:42395:1,2015-10-16T22:20:00Z,26.4040,-90.7920,27.7,11111222 
ADCP,ioos:station:wmo:42395:1,2015-10-16T22:40:00Z,26.4040,-90.7920,27.6,11111222 
ADCP,ioos:station:wmo:42395:1,2015-10-16T23:00:00Z,26.4040,-90.7920,27.6,11111222 
ADCP,ioos:station:wmo:42395:1,2015-10-16T23:20:00Z,26.4040,-90.7920,27.6,11111222 
ADCP,ioos:station:wmo:42395:1,2015-10-17T00:00:00Z,26.4040,-90.7920,27.5,11111222 
ADCP,ioos:station:wmo:42395:1,2015-10-17T00:20:00Z,26.4040,-90.7920,27.5,11111222 
ADCP,ioos:station:wmo:42395:1,2015-10-17T00:40:00Z,26.4040,-90.7920,27.4,11111222 
ADCP,ioos:station:wmo:42395:1,2015-10-17T01:00:00Z,26.4040,-90.7920,27.5,11111222 
ADCP,ioos:station:wmo:42395:1,2015-10-17T01:20:00Z,26.4040,-90.7920,27.4,11111222 
ADCP,ioos:station:wmo:42395:1,2015-10-17T01:40:00Z,26.4040,-90.7920,27.5,11111222 
ADCP,ioos:station:wmo:42395:1,2015-10-17T02:20:00Z,26.4040,-90.7920,27.4,11111222 
ADCP,ioos:station:wmo:42395:1,2015-10-17T02:40:00Z,26.4040,-90.7920,27.3,11111222 
ADCP,ioos:station:wmo:42395:1,2015-10-17T03:00:00Z,26.4040,-90.7920,27.3,11111222 
ADCP,ioos:station:wmo:42395:1,2015-10-17T03:20:00Z,26.4040,-90.7920,27.3,11111222 
ADCP,ioos:station:wmo:42395:1,2015-10-17T03:40:00Z,26.4040,-90.7920,27.2,11111222 
ADCP,ioos:station:wmo:42395:1,2015-10-17T04:20:00Z,26.4040,-90.7920,27.1,11111222 
ADCP,ioos:station:wmo:42395:1,2015-10-17T04:40:00Z,26.4040,-90.7920,27.1,11111222 
ADCP,ioos:station:wmo:42395:1,2015-10-17T05:00:00Z,26.4040,-90.7920,27.0,11111222 
ADCP,ioos:station:wmo:42395:1,2015-10-17T05:40:00Z,26.4040,-90.7920,27.0,11111222 
ADCP,ioos:station:wmo:42395:1,2015-10-17T06:00:00Z,26.4040,-90.7920,26.9,11111222 
ADCP,ioos:station:wmo:42395:1,2015-10-17T06:20:00Z,26.4040,-90.7920,26.9,11111222 
ADCP,ioos:station:wmo:42395:1,2015-10-17T06:40:00Z,26.4040,-90.7920,26.9,11111222 
ADCP,ioos:station:wmo:42395:1,2015-10-17T07:00:00Z,26.4040,-90.7920,26.9,11111222 
ADCP,ioos:station:wmo:42395:1,2015-10-17T07:40:00Z,26.4040,-90.7920,26.8,11111222 
ADCP,ioos:station:wmo:42395:1,2015-10-17T08:00:00Z,26.4040,-90.7920,26.8,11111222 
ADCP,ioos:station:wmo:42395:1,2015-10-17T08:20:00Z,26.4040,-90.7920,26.8,11111222 
ADCP,ioos:station:wmo:42395:1,2015-10-17T08:40:00Z,26.4040,-90.7920,26.9,11111222 
ADCP,ioos:station:wmo:42395:1,2015-10-17T09:00:00Z,26.4040,-90.7920,26.8,11111222 
ADCP,ioos:station:wmo:42395:1,2015-10-17T09:40:00Z,26.4040,-90.7920,27.0,11111222 
ADCP,ioos:station:wmo:42395:1,2015-10-17T10:00:00Z,26.4040,-90.7920,27.1,11111222 
ADCP,ioos:station:wmo:42395:1,2015-10-17T10:20:00Z,26.4040,-90.7920,27.1,11111222 
ADCP,ioos:station:wmo:42395:1,2015-10-17T10:40:00Z,26.4040,-90.7920,27.1,11111222 
ADCP,ioos:station:wmo:42395:1,2015-10-17T11:00:00Z,26.4040,-90.7920,27.1,11111222 
ADCP,ioos:station:wmo:42395:1,2015-10-17T11:20:00Z,26.4040,-90.7920,27.0,11111222 
ADCP,ioos:station:wmo:42395:1,2015-10-17T12:00:00Z,26.4040,-90.7920,27.0,11111222 
ADCP,ioos:station:wmo:42395:1,2015-10-17T12:20:00Z,26.4040,-90.7920,27.1,11111222 
ADCP,ioos:station:wmo:42395:1,2015-10-17T12:40:00Z,26.4040,-90.7920,27.1,11111222 
ADCP,ioos:station:wmo:42395:1,2015-10-17T13:00:00Z,26.4040,-90.7920,27.2,11111222 
ADCP,ioos:station:wmo:42395:1,2015-10-17T13:20:00Z,26.4040,-90.7920,27.3,11111222 
ADCP,ioos:station:wmo:42395:1,2015-10-17T14:00:00Z,26.4040,-90.7920,27.6,11111222 
ADCP,ioos:station:wmo:42395:1,2015-10-17T14:20:00Z,26.4040,-90.7920,27.6,11111222 
ADCP,ioos:station:wmo:42395:1,2015-10-17T14:40:00Z,26.4040,-90.7920,27.5,11111222 
ADCP,ioos:station:wmo:42395:1,2015-10-17T15:00:00Z,26.4040,-90.7920,27.3,11111222 
ADCP,ioos:station:wmo:42395:1,2015-10-17T15:20:00Z,26.4040,-90.7920,27.4,11111222 
ADCP,ioos:station:wmo:42395:1,2015-10-17T16:00:00Z,26.4040,-90.7920,27.5,11111222 
ADCP,ioos:station:wmo:42395:1,2015-10-17T16:20:00Z,26.4040,-90.7920,27.5,11111222 
ADCP,ioos:station:wmo:42395:1,2015-10-17T16:40:00Z,26.4040,-90.7920,27.5,11111222 
ADCP,ioos:station:wmo:42395:1,2015-10-17T17:00:00Z,26.4040,-90.7920,27.5,11111222 
ADCP,ioos:station:wmo:42395:1,2015-10-17T17:20:00Z,26.4040,-90.7920,27.6,11111222 
ADCP,ioos:station:wmo:42395:1,2015-10-17T18:00:00Z,26.4040,-90.7920,27.6,11111222 
ADCP,ioos:station:wmo:42395:1,2015-10-17T18:20:00Z,26.4040,-90.7920,27.7,11111222 
ADCP,ioos:station:wmo:42395:1,2015-10-17T18:40:00Z,26.4040,-90.7920,27.6,11111222 
ADCP,ioos:station:wmo:42395:1,2015-10-17T19:00:00Z,26.4040,-90.7920,27.6,11111222 
ADCP,ioos:station:wmo:42395:1,2015-10-17T19:20:00Z,26.4040,-90.7920,27.5,11111222 
ADCP,ioos:station:wmo:42395:1,2015-10-17T20:00:00Z,26.4040,-90.7920,27.5,11111222 
ADCP,ioos:station:wmo:42395:1,2015-10-17T20:20:00Z,26.4040,-90.7920,27.5,11111222 
ADCP,ioos:station:wmo:42395:1,2015-10-17T20:40:00Z,26.4040,-90.7920,27.3,11111222 
ADCP,ioos:station:wmo:42395:1,2015-10-17T21:00:00Z,26.4040,-90.7920,27.3,11111222 
ADCP,ioos:station:wmo:42395:1,2015-10-17T21:20:00Z,26.4040,-90.7920,27.1,11111222 
ADCP,ioos:station:wmo:42395:1,2015-10-17T22:00:00Z,26.4040,-90.7920,26.9,11111222 
ADCP,ioos:station:wmo:42395:1,2015-10-17T22:20:00Z,26.4040,-90.7920,26.8,11111222 
ADCP,ioos:station:wmo:42395:1,2015-10-17T22:40:00Z,26.4040,-90.7920,26.7,11111222 
ADCP,ioos:station:wmo:42395:1,2015-10-17T23:00:00Z,26.4040,-90.7920,26.6,11111222 
ADCP,ioos:station:wmo:42395:1,2015-10-17T23:20:00Z,26.4040,-90.7920,26.6,11111222 
ADCP,ioos:station:wmo:42395:1,2015-10-18T00:00:00Z,26.4040,-90.7920,26.4,11111222 
ADCP,ioos:station:wmo:42395:1,2015-10-18T00:20:00Z,26.4040,-90.7920,26.3,11111222 
ADCP,ioos:station:wmo:42395:1,2015-10-18T00:40:00Z,26.4040,-90.7920,26.3,11111222 
ADCP,ioos:station:wmo:42395:1,2015-10-18T01:00:00Z,26.4040,-90.7920,26.2,11111222 
ADCP,ioos:station:wmo:42395:1,2015-10-18T01:20:00Z,26.4040,-90.7920,26.2,11111222 
ADCP,ioos:station:wmo:42395:1,2015-10-18T02:00:00Z,26.4040,-90.7920,26.1,11111222 
ADCP,ioos:station:wmo:42395:1,2015-10-18T02:20:00Z,26.4040,-90.7920,26.1,11111222 
ADCP,ioos:station:wmo:42395:1,2015-10-18T02:40:00Z,26.4040,-90.7920,25.9,11111222 
ADCP,ioos:station:wmo:42395:1,2015-10-18T03:00:00Z,26.4040,-90.7920,25.9,11111222 
ADCP,ioos:station:wmo:42395:1,2015-10-18T03:20:00Z,26.4040,-90.7920,25.9,11111222 
ADCP,ioos:station:wmo:42395:1,2015-10-18T03:40:00Z,26.4040,-90.7920,25.9,11111222 
ADCP,ioos:station:wmo:42395:1,2015-10-18T04:20:00Z,26.4040,-90.7920,25.6,11111222 
ADCP,ioos:station:wmo:42395:1,2015-10-18T04:40:00Z,26.4040,-90.7920,25.7,11111222 
ADCP,ioos:station:wmo:42395:1,2015-10-18T05:00:00Z,26.4040,-90.7920,25.7,11111222 
ADCP,ioos:station:wmo:42395:1,2015-10-18T05:40:00Z,26.4040,-90.7920,25.6,11111222 
ADCP,ioos:station:wmo:42395:1,2015-10-18T06:00:00Z,26.4040,-90.7920,25.6,11111222 
ADCP,ioos:station:wmo:42395:1,2015-10-18T06:20:00Z,26.4040,-90.7920,25.6,11111222 
ADCP,ioos:station:wmo:42395:1,2015-10-18T06:40:00Z,26.4040,-90.7920,25.6,11111222 
ADCP,ioos:station:wmo:42395:1,2015-10-18T07:00:00Z,26.4040,-90.7920,25.5,11111222 
ADCP,ioos:station:wmo:42395:1,2015-10-18T07:40:00Z,26.4040,-90.7920,25.7,11111222 
ADCP,ioos:station:wmo:42395:1,2015-10-18T08:00:00Z,26.4040,-90.7920,25.7,11111222 
ADCP,ioos:station:wmo:42395:1,2015-10-18T08:20:00Z,26.4040,-90.7920,25.7,11111222 
ADCP,ioos:station:wmo:42395:1,2015-10-18T08:40:00Z,26.4040,-90.7920,25.6,11111222 
ADCP,ioos:station:wmo:42395:1,2015-10-18T09:00:00Z,26.4040,-90.7920,25.6,11111222 
ADCP,ioos:station:wmo:42395:1,2015-10-18T09:40:00Z,26.4040,-90.7920,25.7,11111222 
ADCP,ioos:station:wmo:42395:1,2015-10-18T10:00:00Z,26.4040,-90.7920,25.7,11111222 
ADCP,ioos:station:wmo:42395:1,2015-10-18T10:20:00Z,26.4040,-90.7920,25.6,11111222 
ADCP,ioos:station:wmo:42395:1,2015-10-18T10:40:00Z,26.4040,-90.7920,25.7,11111222 
ADCP,ioos:station:wmo:42395:1,2015-10-18T11:00:00Z,26.4040,-90.7920,25.6,11111222 
ADCP,ioos:station:wmo:42395:1,2015-10-18T11:40:00Z,26.4040,-90.7920,25.6,11111222 
ADCP,ioos:station:wmo:42395:1,2015-10-18T12:00:00Z,26.4040,-90.7920,25.5,11111222 